KC5EZZ-2 Weather Reports


time (UTC)temp
C
wind
direction
speed
KPH
gust
KPH
rain 1hr
cm
rain 24hr
cm
rain mn
cm
humidity
%
barometer
mb
20260503225425 25 146 20.9 16.1 0.00 0.00 0.00
20260503224926 25 159 14.5 17.7 0.00 0.00 0.00
20260503224426 25 127 17.7 19.3 0.00 0.00 0.00
20260503223923 25 125 20.9 16.1 0.00 0.00 0.00
20260503223424 25 128 19.3 17.7 0.00 0.00 0.00
20260503222924 25 149 12.9 14.5 0.00 0.00 0.00
20260503222422 24 150 20.9 16.1 0.00 0.00 0.00
20260503221922 25 150 14.5 17.7 0.00 0.00 0.00
20260503221422 25 129 17.7 22.5 0.00 0.00 0.00
20260503220920 25 166 16.1 16.1 0.00 0.00 0.00
20260503220420 25 136 16.1 19.3 0.00 0.00 0.00
20260503215921 25 159 14.5 14.5 0.00 0.00 0.00
20260503215418 25 129 20.9 24.1 0.00 0.00 0.00
20260503214919 25 97 17.7 14.5 0.00 0.00 0.00
20260503214419 25 142 20.9 20.9 0.00 0.00 0.00
20260503213917 25 105 20.9 19.3 0.00 0.00 0.00
20260503213417 25 148 19.3 16.1 0.00 0.00 0.00
20260503212918 25 110 17.7 17.7 0.00 0.00 0.00
20260503212415 25 142 16.1 20.9 0.00 0.00 0.00
20260503211916 25 120 24.1 17.7 0.00 0.00 0.00
20260503211416 26 117 17.7 27.4 0.00 0.00 0.00
20260503210915 27 153 14.5 14.5 0.00 0.00 0.00
20260503210414 27 167 14.5 11.3 0.00 0.00 0.00
20260503205914 27 127 17.7 16.1 0.00 0.00 0.00
20260503205412 27 183 14.5 14.5 0.00 0.00 0.00
20260503204912 26 176 19.3 11.3 0.00 0.00 0.00
20260503204413 26 195 16.1 11.3 0.00 0.00 0.00
20260503203910 26 180 14.5 14.5 0.00 0.00 0.00
20260503203411 26 156 19.3 22.5 0.00 0.00 0.00
20260503202911 27 176 12.9 19.3 0.00 0.00 0.00
20260503202409 26 124 6.4 3.2 0.00 0.00 0.00
20260503201909 26 187 16.1 14.5 0.00 0.00 0.00
20260503201409 26 105 20.9 19.3 0.00 0.00 0.00
20260503200907 26 135 12.9 14.5 0.00 0.00 0.00
20260503200407 26 118 20.9 17.7 0.00 0.00 0.00
20260503195908 26 183 12.9 17.7 0.00 0.00 0.00
20260503195405 26 177 16.1 16.1 0.00 0.00 0.00
20260503194906 26 159 16.1 20.9 0.00 0.00 0.00
20260503194406 26 136 16.1 22.5 0.00 0.00 0.00
20260503193904 25 138 12.9 16.1 0.00 0.00 0.00
20260503193404 25 134 14.5 17.7 0.00 0.00 0.00
20260503192904 25 162 11.3 12.9 0.00 0.00 0.00
20260503192402 26 128 16.1 14.5 0.00 0.00 0.00
20260503191902 26 186 20.9 20.9 0.00 0.00 0.00
20260503191403 26 118 16.1 16.1 0.00 0.00 0.00
20260503190900 25 129 22.5 17.7 0.00 0.00 0.00
20260503190401 25 146 17.7 16.1 0.00 0.00 0.00
20260503185901 25 145 16.1 14.5 0.00 0.00 0.00
20260503185359 25 117 16.1 12.9 0.00 0.00 0.00
20260503184859 26 135 12.9 12.9 0.00 0.00 0.00
20260503184359 25 184 19.3 12.9 0.00 0.00 0.00
20260503183857 26 152 16.1 24.1 0.00 0.00 0.00
20260503183357 25 138 17.7 19.3 0.00 0.00 0.00
20260503182857 25 198 22.5 16.1 0.00 0.00 0.00
20260503182355 25 129 16.1 19.3 0.00 0.00 0.00
20260503181855 25 134 12.9 14.5 0.00 0.00 0.00
20260503181356 25 118 22.5 16.1 0.00 0.00 0.00
20260503180853 25 153 8.0 4.8 0.00 0.00 0.00
20260503180354 25 200 14.5 16.1 0.00 0.00 0.00
20260503175854 25 134 16.1 16.1 0.00 0.00 0.00
20260503175352 23 120 16.1 16.1 0.00 0.00 0.00
20260503174852 24 108 20.9 14.5 0.00 0.00 0.00
20260503174352 25 122 12.9 24.1 0.00 0.00 0.00
20260503173850 25 193 17.7 16.1 0.00 0.00 0.00
20260503173350 24 149 17.7 14.5 0.00 0.00 0.00
20260503172851 25 190 17.7 17.7 0.00 0.00 0.00
20260503172348 25 173 17.7 12.9 0.00 0.00 0.00
20260503171848 24 203 14.5 14.5 0.00 0.00 0.00
20260503171349 24 200 16.1 22.5 0.00 0.00 0.00
20260503170846 24 169 17.7 17.7 0.00 0.00 0.00
20260503170347 23 156 17.7 12.9 0.00 0.00 0.00
20260503150834 21 194 12.9 12.9 0.00 0.00 0.00
20260503150334 20 197 11.3 11.3 0.00 0.00 0.00
20260503131323 18 11 0.0 0.0 0.00 0.18 0.00
20260503130820 18 11 0.0 0.0 0.00 0.18 0.00
20260503130321 17 11 0.0 0.0 0.00 0.18 0.00
20260503110808 8 333 0.0 0.0 0.00 0.18 0.00
20260503110309 9 353 3.2 1.6 0.00 0.18 0.00
20260503090254 6 156 0.0 0.0 0.00 0.18 0.00
20260503081250 11 156 0.0 0.0 0.00 0.18 0.00
20260503080748 11 156 0.0 0.0 0.00 0.18 0.00
20260503080248 11 156 0.0 0.0 0.00 0.18 0.00
20260503072745 12 156 0.0 0.0 0.00 0.18 0.00
20260503072242 12 156 0.0 0.0 0.00 0.18 0.00
20260503071743 12 156 0.0 0.0 0.00 0.18 0.00
20260503071243 12 156 0.0 0.0 0.00 0.18 0.00
20260503070741 12 156 0.0 0.0 0.00 0.18 0.00
20260503070241 12 156 0.0 0.0 0.00 0.18 0.00
20260503060235 13 146 1.6 3.2 0.00 0.18 0.00
20260503054734 13 150 1.6 1.6 0.00 0.18 0.00
20260503054234 13 149 3.2 1.6 0.00 0.18 0.00
20260503053732 14 146 3.2 3.2 0.00 0.18 0.00
20260503053233 14 149 4.8 3.2 0.00 0.18 0.00
20260503052733 13 159 4.8 4.8 0.00 0.18 0.00
20260503052231 14 191 6.4 6.4 0.00 0.18 0.00
20260503051731 14 177 6.4 4.8 0.00 0.18 0.00
20260503051232 13 180 8.0 6.4 0.00 0.18 0.00
20260503050729 13 183 4.8 6.4 0.00 0.18 0.00
20260503050230 13 183 3.2 4.8 0.00 0.18 0.00
20260503045730 13 156 0.0 0.0 0.00 0.18 0.00
20260503045228 13 156 0.0 0.0 0.00 0.18 0.00
20260503044728 13 156 0.0 0.0 0.00 0.18 0.00
20260503044229 13 156 1.6 0.0 0.00 0.18 0.00
20260503043920 13 169 0.0 0.0 0.00 0.18 0.00
20260503043727 13 169 0.0 0.0 0.00 0.18 0.00
20260503043227 13 128 0.0 0.0 0.00 0.18 0.00
20260503042728 13 128 0.0 0.0 0.00 0.18 0.00
20260503042410 13 160 3.2 3.2 0.00 0.18 0.00
20260503042225 13 165 1.6 1.6 0.00 0.18 0.00
20260503041726 13 160 3.2 3.2 0.00 0.18 0.00
20260503041226 13 174 3.2 4.8 0.00 0.18 0.00
20260503040724 13 238 0.0 0.0 0.00 0.18 0.00
20260503040225 13 238 0.0 0.0 0.00 0.18 0.00
20260503035725 13 238 0.0 0.0 0.00 0.18 0.00
20260503035223 13 238 0.0 0.0 0.00 0.18 0.00
20260503034723 13 238 0.0 0.0 0.00 0.18 0.00
20260503034303 13 238 0.0 0.0 0.00 0.18 0.00
20260503034225 13 238 0.0 0.0 0.00 0.18 0.00
20260503034222 13 238 0.0 0.0 0.00 0.18 0.00
20260503033719 13 238 0.0 0.0 0.00 0.18 0.00
20260503033238 15 70 0.0 0.0 0.00 0.18 0.00
20260503033220 13 238 0.0 0.0 0.00 0.18 0.00
20260503032720 14 238 0.0 0.0 0.00 0.18 0.00
20260503032218 14 238 0.0 0.0 0.00 0.18 0.00
20260503031718 14 238 0.0 0.0 0.00 0.18 0.00
20260503031219 14 238 0.0 0.0 0.00 0.18 0.00
20260503030716 15 245 3.2 3.2 0.00 0.18 0.00
20260503030216 15 70 0.0 0.0 0.00 0.18 0.00
20260503025717 15 70 0.0 0.0 0.00 0.18 0.00
20260503025214 15 70 0.0 0.0 0.00 0.18 0.00
20260503024715 15 70 0.0 0.0 0.00 0.18 0.00
20260503024215 15 70 0.0 0.0 0.00 0.18 0.00
20260503023713 15 70 0.0 0.0 0.00 0.18 0.00
20260503023212 15 70 0.0 0.0 0.00 0.18 0.00
20260503022826 15 70 0.0 0.0 0.00 0.18 0.00
20260503022712 15 70 0.0 0.0 0.00 0.18 0.00
20260503022210 15 70 0.0 0.0 0.00 0.18 0.00
20260503021710 16 70 0.0 0.0 0.00 0.18 0.00
20260503021211 16 70 0.0 0.0 0.00 0.18 0.00
20260503020708 16 70 0.0 0.0 0.00 0.18 0.00
20260503020209 16 70 0.0 0.0 0.00 0.18 0.00
20260503015709 17 70 0.0 0.0 0.00 0.18 0.00
20260503015207 17 70 0.0 0.0 0.00 0.18 0.00
20260503014707 17 70 0.0 0.0 0.00 0.18 0.00
20260503014207 17 70 0.0 0.0 0.00 0.18 0.00
20260503013705 17 70 0.0 0.0 0.00 0.18 0.00
20260503013205 18 70 0.0 0.0 0.00 0.18 0.00
20260503012706 18 70 0.0 0.0 0.00 0.18 0.00
20260503012203 18 70 0.0 0.0 0.00 0.18 0.00
20260503011703 18 70 0.0 0.0 0.00 0.18 0.00
20260503011204 18 70 0.0 0.0 0.00 0.18 0.00
20260503010701 19 70 0.0 0.0 0.00 0.18 0.00
20260503010202 19 70 0.0 0.0 0.00 0.18 0.00
20260503005702 19 70 0.0 0.0 0.00 0.18 0.00
20260503005200 19 70 0.0 0.0 0.00 0.18 0.00
20260503004700 19 70 0.0 0.0 0.00 0.18 0.00
20260503004201 20 70 0.0 0.0 0.00 0.18 0.00
20260503003658 20 70 0.0 0.0 0.00 0.18 0.00
20260503003159 20 70 0.0 0.0 0.00 0.18 0.00
20260503002659 12 345 20.9 19.3 0.00 0.05 0.08
20260503002657 12 353 22.5 17.7 0.00 0.05 0.03
20260503002654 12 35 16.1 17.7 0.00 0.05 0.03
20260503002652 12 41 16.1 17.7 0.00 0.00 0.05
20260503002157 20 70 0.0 0.0 0.00 0.18 0.00
20260503001657 20 70 3.2 1.6 0.00 0.18 0.00
20260503001158 20 94 0.0 0.0 0.00 0.18 0.00
20260503000655 20 94 0.0 0.0 0.00 0.18 0.00
20260503000156 20 94 0.0 0.0 0.00 0.18 0.00
20260502235656 21 94 0.0 0.0 0.00 0.18 0.00
20260502235154 20 94 1.6 0.0 0.00 0.18 0.00
20260502234654 21 62 0.0 0.0 0.00 0.18 0.00
20260502234154 20 62 0.0 0.0 0.00 0.18 0.00
20260502233652 21 45 1.6 1.6 0.00 0.18 0.00
20260502233152 21 44 0.0 0.0 0.00 0.18 0.00
20260502232653 21 44 0.0 0.0 0.00 0.18 0.00
20260502232150 21 44 0.0 0.0 0.00 0.18 0.00
20260502231650 21 66 4.8 6.4 0.00 0.18 0.00
20260502231151 22 11 0.0 0.0 0.00 0.18 0.00
20260502230648 21 3 3.2 0.0 0.00 0.18 0.00
20260502230149 21 38 0.0 0.0 0.00 0.18 0.00